When you browse on this site, cookies collect data to enhance your experience and personalize the content and advertising you see.
Visit our Privacy Policy to learn more. By continuing to use the site, you agree to this use of cookies and data.
  • In Austria
  • List of Countries
  • For 7 days
  • Water Temperature
  • Satellite Maps
  • Weather Map
  • News
  • Weather Widgets
  • user-avatar
    Login

    Hourly Weather Naftalan

    Today, 17 July, Wednesday

    Time Temperature Precipitation Wind Pressure Humidity
    00:00 +27°C° 0 mm 3 mps 755 mmHg 77%
    01:00 +27°C° 0 mm 3 mps 755 mmHg 75%
    02:00 +27°C° 0 mm 3 mps 755 mmHg 73%
    03:00 +27°C° 0 mm 2 mps 755 mmHg 71%
    04:00 +27°C° 0.1 mm 2 mps 756 mmHg 69%
    05:00 +28°C° 0.1 mm 2 mps 757 mmHg 67%
    06:00 +28°C° 0.1 mm 2 mps 757 mmHg 65%
    07:00 +29°C° 0 mm 3 mps 757 mmHg 60%
    08:00 +31°C° 0 mm 3 mps 757 mmHg 54%
    09:00 +33°C° 0 mm 4 mps 757 mmHg 50%
    10:00 +33°C° 0 mm 4 mps 757 mmHg 48%
    11:00 +34°C° 0 mm 5 mps 757 mmHg 47%
    12:00 +34°C° 0 mm 6 mps 757 mmHg 45%
    13:00 +34°C° 0 mm 6 mps 756 mmHg 46%
    14:00 +33°C° 0 mm 6 mps 756 mmHg 47%
    15:00 +33°C° 0 mm 6 mps 755 mmHg 48%
    16:00 +32°C° 0 mm 5 mps 756 mmHg 51%
    17:00 +30°C° 0 mm 5 mps 756 mmHg 55%
    18:00 +29°C° 0 mm 4 mps 756 mmHg 58%
    19:00 +28°C° 0 mm 3 mps 756 mmHg 63%
    20:00 +27°C° 0 mm 2 mps 756 mmHg 68%
    21:00 +26°C° 0 mm 2 mps 757 mmHg 72%
    22:00 +26°C° 0 mm 1 mps 756 mmHg 74%
    23:00 +26°C° 0 mm 1 mps 756 mmHg 75%

    Tomorrow, 18 July, Thursday

    Time Temperature Precipitation Wind Pressure Humidity
    00:00 +26°C° 0 mm 1 mps 756 mmHg 76%
    01:00 +25°C° 0 mm 1 mps 756 mmHg 76%
    02:00 +25°C° 0 mm 1 mps 756 mmHg 76%
    03:00 +25°C° 0 mm 1 mps 756 mmHg 76%
    04:00 +26°C° 0 mm 1 mps 756 mmHg 71%
    05:00 +26°C° 0 mm 1 mps 756 mmHg 67%
    06:00 +27°C° 0 mm 1 mps 757 mmHg 63%
    07:00 +29°C° 0 mm 1 mps 757 mmHg 56%
    08:00 +30°C° 0 mm 2 mps 757 mmHg 50%
    09:00 +31°C° 0 mm 2 mps 757 mmHg 44%
    10:00 +33°C° 0 mm 3 mps 756 mmHg 41%
    11:00 +33°C° 0 mm 3 mps 756 mmHg 39%
    12:00 +34°C° 0 mm 3 mps 756 mmHg 37%
    13:00 +34°C° 0 mm 4 mps 755 mmHg 37%
    14:00 +34°C° 0 mm 4 mps 755 mmHg 37%
    15:00 +34°C° 0 mm 5 mps 755 mmHg 38%
    16:00 +33°C° 0 mm 5 mps 755 mmHg 43%
    17:00 +32°C° 0 mm 5 mps 755 mmHg 48%
    18:00 +30°C° 0 mm 5 mps 755 mmHg 53%
    19:00 +29°C° 0 mm 4 mps 755 mmHg 58%
    20:00 +28°C° 0 mm 4 mps 756 mmHg 63%
    21:00 +28°C° 0 mm 3 mps 756 mmHg 68%
    22:00 +27°C° 0 mm 2 mps 756 mmHg 70%
    23:00 +27°C° 0 mm 2 mps 756 mmHg 72%

    Day after tomorrow, 19 July, Friday

    Time Temperature Precipitation Wind Pressure Humidity
    00:00 +26°C° 0 mm 1 mps 755 mmHg 75%
    01:00 +26°C° 0 mm 1 mps 755 mmHg 75%
    02:00 +26°C° 0 mm 1 mps 755 mmHg 74%
    03:00 +26°C° 0 mm 2 mps 755 mmHg 74%
    04:00 +26°C° 0 mm 2 mps 756 mmHg 70%
    05:00 +27°C° 0 mm 2 mps 756 mmHg 66%
    06:00 +28°C° 0 mm 1 mps 757 mmHg 63%
    07:00 +29°C° 0 mm 2 mps 757 mmHg 57%
    08:00 +31°C° 0 mm 2 mps 757 mmHg 51%
    09:00 +32°C° 0 mm 2 mps 758 mmHg 45%
    10:00 +34°C° 0 mm 3 mps 757 mmHg 43%
    11:00 +34°C° 0 mm 3 mps 757 mmHg 42%
    12:00 +35°C° 0 mm 4 mps 757 mmHg 41%
    13:00 +35°C° 0 mm 4 mps 757 mmHg 40%
    14:00 +35°C° 0 mm 4 mps 757 mmHg 40%
    15:00 +35°C° 0 mm 5 mps 757 mmHg 40%
    16:00 +34°C° 0 mm 4 mps 757 mmHg 44%
    17:00 +33°C° 0 mm 3 mps 757 mmHg 47%
    18:00 +31°C° 0 mm 3 mps 758 mmHg 50%
    19:00 +30°C° 0 mm 3 mps 758 mmHg 53%
    20:00 +29°C° 0 mm 3 mps 759 mmHg 56%
    21:00 +28°C° 0 mm 4 mps 759 mmHg 59%
    22:00 +29°C° 0 mm 3 mps 760 mmHg 57%
    23:00 +29°C° 0 mm 3 mps 760 mmHg 55%

    20 July, Saturday

    Time Temperature Precipitation Wind Pressure Humidity
    00:00 +29°C° 0 mm 2 mps 760 mmHg 53%
    01:00 +29°C° 0 mm 2 mps 760 mmHg 53%
    02:00 +28°C° 0 mm 2 mps 760 mmHg 54%
    03:00 +28°C° 0 mm 2 mps 760 mmHg 55%
    04:00 +29°C° 0 mm 2 mps 761 mmHg 53%
    05:00 +29°C° 0 mm 3 mps 761 mmHg 52%
    06:00 +30°C° 0 mm 3 mps 762 mmHg 50%
    07:00 +33°C° 0 mm 3 mps 762 mmHg 46%
    08:00 +34°C° 0 mm 3 mps 762 mmHg 41%
    09:00 +35°C° 0 mm 3 mps 763 mmHg 36%
    10:00 +36°C° 0 mm 3 mps 762 mmHg 35%
    11:00 +37°C° 0 mm 4 mps 762 mmHg 34%
    12:00 +37°C° 0 mm 5 mps 762 mmHg 33%
    13:00 +37°C° 0 mm 5 mps 762 mmHg 34%
    14:00 +38°C° 0 mm 6 mps 762 mmHg 35%
    15:00 +36°C° 0 mm 6 mps 762 mmHg 36%
    16:00 +35°C° 0 mm 5 mps 762 mmHg 40%
    17:00 +34°C° 0 mm 4 mps 762 mmHg 43%
    18:00 +33°C° 0 mm 4 mps 763 mmHg 46%
    19:00 +31°C° 0 mm 3 mps 763 mmHg 50%
    20:00 +30°C° 0 mm 2 mps 763 mmHg 53%
    21:00 +29°C° 0 mm 2 mps 764 mmHg 57%
    22:00 +28°C° 0 mm 1 mps 764 mmHg 58%
    23:00 +28°C° 0 mm 1 mps 764 mmHg 60%

    21 July, Sunday

    Time Temperature Precipitation Wind Pressure Humidity
    00:00 +27°C° 0 mm 1 mps 764 mmHg 61%
    01:00 +27°C° 0 mm 1 mps 763 mmHg 62%
    02:00 +27°C° 0 mm 1 mps 763 mmHg 63%
    03:00 +26°C° 0 mm 1 mps 763 mmHg 64%
    04:00 +27°C° 0 mm 1 mps 763 mmHg 62%
    05:00 +28°C° 0 mm 2 mps 764 mmHg 60%
    06:00 +29°C° 0 mm 2 mps 764 mmHg 58%
    07:00 +30°C° 0 mm 3 mps 764 mmHg 54%
    08:00 +31°C° 0 mm 3 mps 764 mmHg 50%
    09:00 +33°C° 0 mm 4 mps 763 mmHg 45%
    10:00 +34°C° 0 mm 4 mps 763 mmHg 43%
    11:00 +34°C° 0 mm 4 mps 763 mmHg 41%
    12:00 +35°C° 0 mm 5 mps 762 mmHg 39%
    13:00 +35°C° 0 mm 5 mps 762 mmHg 39%
    14:00 +35°C° 0 mm 5 mps 761 mmHg 39%
    15:00 +35°C° 0 mm 5 mps 760 mmHg 38%
    16:00 +34°C° 0 mm 5 mps 760 mmHg 42%
    17:00 +32°C° 0 mm 4 mps 760 mmHg 46%
    18:00 +30°C° 0 mm 4 mps 760 mmHg 50%
    19:00 +29°C° 0 mm 3 mps 760 mmHg 56%
    20:00 +28°C° 0 mm 2 mps 761 mmHg 62%
    21:00 +27°C° 0 mm 1 mps 761 mmHg 68%
    22:00 +27°C° 0 mm 1 mps 761 mmHg 68%
    23:00 +26°C° 0 mm 1 mps 761 mmHg 68%

    22 July, Monday

    Time Temperature Precipitation Wind Pressure Humidity
    00:00 +26°C° 0 mm 1 mps 760 mmHg 67%
    01:00 +26°C° 0 mm 2 mps 760 mmHg 67%
    02:00 +26°C° 0 mm 2 mps 760 mmHg 67%
    03:00 +26°C° 0 mm 2 mps 759 mmHg 66%
    04:00 +27°C° 0 mm 2 mps 759 mmHg 65%
    05:00 +27°C° 0 mm 2 mps 759 mmHg 63%
    06:00 +28°C° 0 mm 2 mps 759 mmHg 62%
    07:00 +29°C° 0 mm 2 mps 759 mmHg 56%
    08:00 +31°C° 0 mm 2 mps 759 mmHg 49%
    09:00 +33°C° 0 mm 3 mps 759 mmHg 43%
    10:00 +34°C° 0 mm 3 mps 759 mmHg 41%
    11:00 +35°C° 0 mm 4 mps 759 mmHg 39%
    12:00 +35°C° 0 mm 5 mps 758 mmHg 38%
    13:00 +35°C° 0 mm 5 mps 758 mmHg 39%
    14:00 +35°C° 0 mm 5 mps 757 mmHg 40%
    15:00 +35°C° 0 mm 5 mps 757 mmHg 42%
    16:00 +34°C° 0 mm 4 mps 757 mmHg 45%
    17:00 +33°C° 0 mm 3 mps 757 mmHg 49%
    18:00 +31°C° 0 mm 2 mps 756 mmHg 52%
    19:00 +30°C° 0 mm 3 mps 757 mmHg 57%
    20:00 +28°C° 0 mm 3 mps 757 mmHg 62%
    21:00 +27°C° 0 mm 3 mps 757 mmHg 67%
    22:00 +27°C° 0 mm 3 mps 757 mmHg 68%
    23:00 +27°C° 0 mm 3 mps 757 mmHg 69%
    Show more